• Back
  •  
  • Position of Reservoir Gates
S.No.
No. of opened gates
Position of opening (In m)
Reporting Date
Reporting Time
Discharge in Cumecs
Discharge in Cusecs
Actual date and time of Gate opening
1
2
3
4
5
6
7
8
1 11 07/07/2016 9:23:33 AM 969
2 11 08/07/2016 11:19:33 AM 1171
3 11 10/07/2016 12:04:05 PM 516.65
4 11 11/07/2016 12:12:21 PM 350.81
5 11 16/07/2016 8:53:04 AM 227.2
6 11 17/07/2016 9:38:54 AM 164.09
7 11 18/07/2016 8:58:55 AM 79.94
8 11 19/07/2016 12:12:45 PM 37.86
9 11 19/07/2016 12:23:02 PM 37.86
10 11 21/07/2016 8:55:11 AM 16.83
11 11 25/07/2016 9:00:19 AM 79.94
12 11 26/07/2016 12:08:21 PM 58.9
13 11 27/07/2016 11:20:21 AM 227.2
14 11 28/07/2016 12:31:48 PM 227.2
15 11 28/07/2016 2:51:48 PM 227.2
16 11 29/07/2016 11:55:10 AM 143.05
17 11 29/07/2016 1:32:32 PM 143.05
18 11 30/07/2016 1:12:20 PM 69.42
19 11 31/07/2016 10:16:20 AM 58.9
20 11 01/08/2016 10:43:52 AM 206.16
21 11 02/08/2016 10:44:44 AM 164.09
22 11 03/08/2016 11:47:19 AM 143.05
23 11 04/08/2016 8:24:27 AM 227.2
24 11 06/08/2016 8:50:35 AM 290.31
25 11 07/08/2016 1:01:39 PM 311.35
26 11 09/08/2016 8:00:00 AM 143.05
27 11 08/08/2016 8:00:00 AM 206
28 11 08/08/2016 5:25:47 PM 206
29 11 08/08/2016 5:25:47 PM 206
30 11 09/08/2016 3:00:46 PM 143.05
31 11 10/08/2016 9:12:46 AM 79.94
32 11 10/08/2016 9:12:46 AM 79.94
33 11 10/08/2016 9:12:46 AM 79.94
34 11 10/08/2016 9:12:46 AM 79.94
35 11 11/08/2016 12:24:05 PM 58.9
36 11 11/08/2016 12:24:05 PM 58.9
37 11 11/08/2016 12:35:37 PM 58.9
38 11 11/08/2016 12:35:37 PM 58.9
39 11 11/08/2016 3:09:12 PM 58.9
40 11 12/08/2016 11:21:57 AM 37.86
41 11 12/08/2016 11:45:57 AM 37.86
42 11 14/08/2016 10:05:29 AM 37.86
43 11 13/08/2016 11:13:29 AM 37.86
44 11 15/08/2016 9:05:41 AM 111.5
45 11 17/08/2016 8:09:42 AM 48.36
46 11 18/08/2016 12:22:11 PM 79.94
47 11 19/08/2016 11:05:17 AM 79.94
48 11 20/08/2016 1:43:53 PM 626.91
49 11 20/08/2016 2:57:56 PM 626.91
50 11 20/08/2016 2:57:56 PM 626.91
51 11 21/08/2016 9:40:34 AM 342.91
52 11 22/08/2016 11:21:53 AM 143.06
53 11 23/08/2016 9:11:47 AM 100.98
54 11 23/08/2016 9:24:01 AM 100.98
55 11 23/08/2016 9:36:21 AM 100.98
56 11 24/08/2016 9:11:56 AM 111.5
57 11 25/08/2016 9:22:41 AM 122.01
58 11 26/08/2016 8:31:19 AM 100.98
59 11 27/08/2016 7:43:19 AM 227.2
60 11 28/08/2016 10:04:10 AM 164.09
61 11 29/08/2016 9:04:10 AM 100.98
62 11 31/08/2016 10:09:15 AM 100.98
63 11 02/09/2016 9:46:40 AM 69.42
64 11 01/09/2016 7:41:15 AM 69.42
65 11 30/08/2016 10:32:22 AM 69.42
66 11 03/09/2016 2:45:28 PM 58.9
67 11 03/09/2016 2:45:28 PM 58.9
68 11 04/09/2016 1:12:43 PM 37.86
69 11 06/09/2016 7:52:09 AM 27.34
70 11 06/09/2016 8:05:00 AM 27.34
71 11 06/09/2016 8:18:41 AM 27.34
72 11 06/09/2016 5:09:12 PM 27.34
73 11 11/07/2017 8:21:47 AM 10.08
74 11 12/07/2017 8:35:11 AM 4.7
75 11 12/07/2017 8:41:47 AM 4.7
76 11 14/07/2017 8:36:46 AM 24.35
77 11 15/07/2017 11:03:03 AM 14.95
78 11 15/07/2017 11:21:10 AM 14.95
79 11 15/07/2017 11:21:10 AM 14.95
80 11 15/07/2017 12:22:45 PM 14.95
81 11 15/07/2017 12:58:45 PM 14.95
82 11 16/07/2017 8:34:45 AM 10.08
83 11 17/07/2017 8:14:45 AM 4.7
84 11 20/07/2017 8:41:19 AM 10.08
85 11 21/07/2017 8:49:08 AM 14.95
86 11 24/07/2017 8:37:15 AM 10.08
87 11 25/07/2017 8:45:04 AM 10.08
88 11 26/07/2017 6:17:35 PM 14.95
89 11 27/07/2017 8:29:35 AM 14.95
90 11 28/07/2017 8:17:35 AM 47.25
91 11 29/07/2017 11:32:03 AM 35.17
92 11 30/07/2017 11:50:55 PM 35.17
93 11 31/07/2017 8:32:24 AM 14.95
94 11 01/08/2017 11:27:09 AM 14.95
95 11 01/08/2017 11:33:41 AM 14.95
96 11 02/08/2017 11:30:11 AM 10.08
97 11 04/08/2017 8:45:50 AM 10.08
98 11 05/08/2017 8:38:19 AM 10.08
99 11 07/08/2017 8:44:04 AM 10.08
100 11 09/08/2017 8:28:11 AM 60.45
101 11 10/08/2017 10:46:50 AM 35.17
102 11 10/08/2017 10:53:28 AM 35.17
103 11 10/08/2017 2:17:01 PM 35.17
104 11 11/08/2017 8:32:25 AM 24.35
105 11 14/08/2017 9:57:50 AM 14.95
106 11 16/08/2017 8:48:43 AM 10.08
107 11 17/08/2017 8:40:43 AM 10.08
108 11 18/08/2017 8:22:02 AM 10.08
109 11 19/08/2017 8:24:43 AM 1.27
110 11 20/08/2017 10:49:32 AM 1.27
111 11 20/08/2017 12:33:32 PM 1.27
112 11 20/08/2017 12:33:32 PM 1.27
113 11 20/08/2017 12:33:32 PM 1.27
114 11 21/08/2017 11:25:06 AM 1.27
115 11 22/08/2017 11:49:00 AM 1.27
116 11 22/08/2017 12:32:30 PM 1.27
117 11 23/08/2017 8:27:16 AM 1.27
118 11 24/08/2017 11:14:05 AM 10.08
119 11 24/08/2017 11:20:18 AM 10.08
120 11 25/08/2017 8:40:18 AM 35.17
121 11 26/08/2017 11:31:11 AM 24.35
122 11 27/08/2017 8:32:16 AM 14.95
123 2 28/08/2017 11:04:44 AM 10.99
124 2 29/08/2017 8:00:00 AM 19.28
125 2 30/08/2017 8:11:00 AM 22.37
126 2 31/08/2017 8:19:00 AM 22.37
127 2 31/08/2017 8:19:00 AM 22.37
128 2 01/09/2017 10:11:44 AM 22.37
129 2 01/09/2017 11:49:10 AM 22.37
130 2 01/09/2017 11:49:10 AM 22.37
131 2 02/09/2017 10:24:11 AM 16.35
132 2 03/09/2017 11:48:24 AM 13.58
133 2 03/09/2017 11:52:24 AM 13.58
134 2 03/09/2017 12:56:24 PM 13.58
135 0 05/09/2017 8:20:27 AM 0
136 0 06/09/2017 8:21:18 AM 0
137 0 07/09/2017 8:13:19 AM 0
138 0 08/09/2017 8:42:01 AM 0
139 0 09/09/2017 8:22:01 AM 0
140 0 10/09/2017 12:55:47 PM 0
141 0 12/09/2017 10:37:23 AM 0
142 0 12/09/2017 11:29:16 AM 0
143 0 14/09/2017 9:13:37 AM 0
144 0 14/09/2017 9:13:37 AM 0
145 0 14/09/2017 9:13:37 AM 0
146 0 14/09/2017 9:35:41 AM 0
147 0 14/09/2017 9:35:41 AM 0
148 0 14/09/2017 10:03:41 AM 0
149 0 15/09/2017 8:51:41 AM 0
150 0 16/09/2017 8:23:54 AM 0
151 0 17/09/2017 10:18:40 AM 0
152 0 18/09/2017 8:18:28 AM 0
153 0 19/09/2017 8:08:40 AM 0
154 0 21/09/2017 10:49:57 AM 0
155 0 21/09/2017 9:13:35 PM 0
156 2 23/09/2017 9:58:09 AM 158.72
157 1 25/09/2017 9:10:47 AM 9
158 0 26/09/2017 9:06:47 AM 0
159 0 27/09/2017 8:10:47 AM 0
160 0 28/09/2017 8:28:29 AM 0
161 1 29/09/2017 11:47:18 AM 38.35
162 1 30/09/2017 9:11:18 AM 37.88
163 1 01/10/2017 8:19:18 AM 35.15
164 1 02/10/2017 8:13:34 AM 34.62
165 0 03/10/2017 8:25:34 AM 0
166 0 06/10/2017 11:18:38 AM 0
167 0 07/10/2017 8:30:38 AM 0
168 0 08/10/2017 12:54:38 PM 0
169 0 12/10/2017 8:19:29 AM 0
170 0 13/10/2017 8:13:39 AM 0
171 0 14/10/2017 11:46:14 AM 0
172 0 16/10/2017 8:21:14 AM 0
173 0 18/10/2017 8:24:22 AM 0
174 0 20/10/2017 8:29:14 AM 0
175 0 21/10/2017 9:07:59 AM 0
176 0 23/10/2017 8:57:14 AM 0
177 0 25/10/2017 9:05:14 AM 0
178 0 27/10/2017 9:52:00 AM 0
179 0 28/10/2017 8:16:00 AM 0
180 0 29/10/2017 8:17:15 AM 0
181 0 30/10/2017 8:29:15 AM 0
182 0 01/11/2017 8:29:15 AM 0
183 0 04/11/2017 8:56:00 AM 0
184 0 05/11/2017 9:20:05 AM 0
185 0 06/11/2017 8:57:15 AM 0
186 0 07/11/2017 8:29:15 AM 0
187 0 08/11/2017 8:44:07 AM 0
188 0 09/11/2017 8:16:07 AM 0
189 0 11/11/2017 8:44:17 AM 0
190 0 12/11/2017 9:00:17 AM 0
191 0 16/11/2017 8:37:18 AM 0
192 0 21/11/2017 8:38:39 AM 0
193 0 22/11/2017 11:31:24 AM 0
194 0 23/11/2017 9:32:32 AM 0
195 0 23/11/2017 10:32:32 AM 0
196 0 24/11/2017 6:01:14 PM 0
197 0 25/11/2017 12:49:46 PM 0
198 0 25/11/2017 1:03:44 PM 0
199 0 26/11/2017 9:01:15 AM 0
200 0 28/11/2017 8:33:15 AM 0
201 0 29/11/2017 8:45:15 AM 0
202 0 30/11/2017 8:17:15 AM 0
203 0 01/12/2017 8:25:16 AM 0
204 0 04/12/2017 10:41:16 AM 0
205 0 05/12/2017 8:05:16 AM 0
206 0 06/12/2017 8:13:16 AM 0
207 0 07/12/2017 8:09:16 AM 0
208 0 08/12/2017 7:05:16 PM 0
209 0 10/12/2017 3:14:12 PM 0
210 0 12/12/2017 8:14:12 AM 0
211 0 11/12/2017 8:24:34 AM 0
212 0 26/12/2017 9:55:26 AM 0
213 0 27/12/2017 10:27:45 AM 0
214 0 28/12/2017 8:59:46 AM 0
215 0 29/12/2017 9:13:14 AM 0
216 0 30/12/2017 9:35:46 AM 0
217 0 31/12/2017 9:43:46 AM 0
218 0 31/12/2017 9:43:46 AM 0
219 0 02/01/2018 8:23:46 AM 0
220 0 03/01/2018 8:43:46 AM 0
221 0 03/01/2018 8:43:46 AM 0
222 0 04/01/2018 8:39:46 AM 0
223 0 05/01/2018 8:39:46 AM 0
224 0 08/01/2018 8:34:40 AM 0
225 0 08/01/2018 8:57:19 AM 0
226 0 09/01/2018 9:08:21 AM 0
227 0 10/01/2018 8:43:55 AM 0
228 0 12/01/2018 8:23:55 AM 0
229 0 13/01/2018 8:42:43 AM 0
230 0 14/01/2018 8:57:53 AM 0
231 0 14/01/2018 8:57:53 AM 0
232 0 15/01/2018 8:49:53 AM 0
233 0 16/01/2018 8:09:54 AM 0
234 0 17/01/2018 8:01:54 AM 0
235 0 18/01/2018 8:17:54 AM 0
236 0 18/01/2018 8:17:54 AM 0
237 0 19/01/2018 8:13:54 AM 0
238 0 20/01/2018 8:05:54 AM 0
239 0 21/01/2018 8:18:46 AM 0
240 0 22/01/2018 8:17:12 AM 0
241 0 22/01/2018 8:17:12 AM 0
242 0 23/01/2018 9:37:12 AM 0
243 0 24/01/2018 8:18:47 AM 0
244 0 25/01/2018 8:17:12 AM 0
245 0 25/01/2018 2:01:12 PM 0
246 0 27/01/2018 8:06:47 AM 0
247 0 27/01/2018 8:06:47 AM 0
248 0 28/01/2018 6:55:10 PM 0
249 0 30/01/2018 8:21:03 AM 0
250 0 30/01/2018 8:21:03 AM 0
251 0 01/02/2018 8:15:28 AM 0
252 0 02/02/2018 8:22:56 AM 0
253 0 03/02/2018 12:17:02 PM 0
254 0 03/02/2018 12:17:02 PM 0
255 0 05/02/2018 11:55:09 AM 0
256 0 05/02/2018 11:55:09 AM 0
257 0 07/02/2018 8:35:37 AM 0
258 0 08/02/2018 8:25:47 AM 0
259 0 08/02/2018 8:25:47 AM 0
260 0 09/02/2018 8:15:37 AM 0
261 0 10/02/2018 8:41:47 AM 0
262 0 11/02/2018 3:36:28 PM 0
263 0 12/02/2018 8:36:56 AM 0
264 0 12/02/2018 8:36:56 AM 0
265 0 13/02/2018 8:27:07 AM 0
266 0 15/02/2018 12:29:32 PM 0
267 0 15/02/2018 12:29:32 PM 0
268 0 16/02/2018 8:09:42 AM 0
269 0 17/02/2018 8:25:42 AM 0
270 0 19/02/2018 10:37:04 AM 0
271 0 19/02/2018 10:47:35 AM 0
272 0 20/02/2018 9:18:58 AM 0
273 0 22/02/2018 8:26:55 AM 0
274 0 22/02/2018 8:31:48 AM 0
275 0 25/02/2018 9:15:49 AM 0
276 0 25/02/2018 9:15:49 AM 0
Powered by © Water Resources Department (MP). All Rights Reserved.